Hourly Data Report for September 26, 2017

All times are specified in Local Standard Time (LST). Add 1 hour to adjust for Daylight Saving Time where and when it is observed.

MIRAMICHI RCS
NEW BRUNSWICK

47°00'34.000" N
65°27'54.000" W
33.00 m
8100989
71744
ACQ

Download Data

Hourly Data (September 2017)
Hourly Data Report for September 26, 2017
Temp Definition
°C
Dew Point Temp Definition
°C
Rel Hum Definition
%
Wind Dir Definition
10's deg

Wind Spd Definition
km/h
Visibility Definition
km
Stn Press Definition
kPa
Hmdx Definition


Wind Chill Definition


Weather Definition


TIME
00:00 21.9 18.6 82 24 15   100.77 28   LegendNANA
01:00 21.9 18.8 82 23 17   100.77 29   LegendNANA
02:00 21.8 18.8 83 24 19   100.73 28   LegendNANA
03:00 21.1 18.8 86 24 17   100.70 28   LegendNANA
04:00 21.0 18.9 88 24 18   100.70 28   LegendNANA
05:00 21.1 19.0 88 24 17   100.70 28   LegendNANA
06:00 20.7 18.9 90 24 15   100.72 27   LegendNANA
07:00 21.1 19.0 88 24 14   100.77 28   LegendNANA
08:00 22.5 19.2 82 24 18   100.76 29   LegendNANA
09:00 24.9 19.6 73 24 18   100.76 32   LegendNANA
10:00 27.0 19.2 62 25 16   100.77 34   LegendNANA
11:00 29.1 18.1 52 28 20   100.73 35   LegendNANA
12:00 29.1 17.8 50 29 19   100.74 35   LegendNANA
13:00 30.2 17.1 45 29 22   100.74 36   LegendNANA
14:00 29.7 17.5 48 30 14   100.78 35   LegendNANA
15:00 20.2 13.4 65 5 31   100.92     LegendNANA
16:00 17.2 13.0 76 7 26   101.06     LegendNANA
17:00 15.7 12.4 81 7 25   101.15     LegendNANA
18:00 14.7 10.9 78 7 25   101.25     LegendNANA
19:00 14.1 9.6 75 6 23   101.37     LegendNANA
20:00 13.8 8.4 70 7 21   101.39     LegendNANA
21:00 14.1 9.3 73 7 18   101.43     LegendNANA
22:00 13.8 9.7 76 7 16   101.47     LegendNANA
23:00 13.6 10.1 80 6 15   101.49     LegendNANA

Notes on Data Quality.

Legend

  • E = Estimated
  • M = Missing
  • NA = Not Available
  • ‡ = Partner data that is not subject to review by the National Climate Archives
Date modified: